This is the latest recevied weather packets stored in our database for station/object KI6PPU. If no packets are shown the sender has not sent any weather packets the latest 10 day(s).
| Time | Temp. | Humidity | Pressure | Rain* | Wind** | Luminosity | Snow |
|---|---|---|---|---|---|---|---|
| 1777447305 | 7.78° C | 93% | 1021.1 hPa | 0 mm | - | 0 W/m² | - |
| 1777447003 | 8.33° C | 93% | 1020.9 hPa | 0 mm | - | 0 W/m² | - |
| 1777446700 | 7.78° C | 92% | 1020.9 hPa | 0 mm | - | 0 W/m² | - |
| 1777446396 | 8.33° C | 92% | 1021.1 hPa | 0 mm | - | 0 W/m² | - |
| 1777446093 | 8.33° C | 92% | 1021 hPa | 0 mm | - | 0 W/m² | - |
| 1777445789 | 8.33° C | 92% | 1021.1 hPa | 0 mm | - | 0 W/m² | - |
| 1777445485 | 8.33° C | 91% | 1021 hPa | 0 mm | - | 0 W/m² | - |
| 1777445181 | 8.89° C | 91% | 1020.7 hPa | 0 mm | - | 0 W/m² | - |
| 1777444878 | 8.89° C | 91% | 1021 hPa | 0 mm | - | 0 W/m² | - |
| 1777444573 | 8.89° C | 90% | 1020.9 hPa | 0 mm | - | 0 W/m² | - |
| 1777444271 | 8.89° C | 90% | 1020.8 hPa | 0 mm | - | 0 W/m² | - |
| 1777443967 | 8.89° C | 90% | 1020.7 hPa | 0 mm | - | 0 W/m² | - |
| 1777443663 | 9.44° C | 89% | 1020.7 hPa | 0 mm | - | 0 W/m² | - |
| 1777443362 | 9.44° C | 90% | 1020.6 hPa | 0 mm | - | 0 W/m² | - |
| 1777443061 | 8.89° C | 89% | 1020.7 hPa | 0 mm | - | 0 W/m² | - |
| 1777442758 | 9.44° C | 89% | 1020.8 hPa | 0 mm | - | 0 W/m² | - |
| 1777442453 | 9.44° C | 89% | 1020.7 hPa | 0 mm | - | 0 W/m² | - |
| 1777442150 | 9.44° C | 89% | 1020.9 hPa | 0 mm | - | 0 W/m² | - |
| 1777441845 | 9.44° C | 88% | 1020.8 hPa | 0 mm | - | 0 W/m² | - |
| 1777441541 | 10° C | 88% | 1020.8 hPa | 0 mm | - | 0 W/m² | - |
| 1777441237 | 10° C | 88% | 1021 hPa | 0 mm | - | 0 W/m² | - |
| 1777440932 | 10° C | 88% | 1020.9 hPa | 0 mm | - | 0 W/m² | - |
| 1777440628 | 10° C | 87% | 1021 hPa | 0 mm | - | 0 W/m² | - |
| 1777440324 | 10° C | 87% | 1020.8 hPa | 0 mm | - | 0 W/m² | - |
| 1777440021 | 10° C | 87% | 1020.9 hPa | 0 mm | - | 0 W/m² | - |
* Rain latest hour (hover to see other rain measurements)
** Current wind speed in m/s (hover to see current wind gust speed)